SAR-LUPE 3 1 32283U 07053A 25310.28087558 .00156574 00000+0 91775-3 0 9996 2 32283 98.1614 120.3391 0008614 197.1461 162.9513 15.77808677 5486 SAPPHIRE 1 39088U 13009C 25310.06763323 .00000203 00000+0 85931-4 0 9996 2 39088 98.4166 129.9233 0011000 187.7155 172.3863 14.35138780664577 PRAETORIAN SDA_602 1 65565U 25203A 25310.21632373 .00000184 00000+0 15330-3 0 9994 2 65565 81.3043 217.3297 0007359 77.9390 282.2591 13.84615201 7847 PRAETORIAN SDA_603 1 65566U 25203B 25310.18603155 .00000303 00000+0 25614-3 0 9996 2 65566 81.3049 217.2966 0011318 76.9873 283.2547 13.85356184 7846 PRAETORIAN SDA_604 1 65567U 25203C 25310.21795528 .00000089 00000+0 69011-4 0 9998 2 65567 81.3070 217.3485 0007643 80.9099 279.2923 13.84575869 7844 PRAETORIAN SDA_605 1 65568U 25203D 25310.26524127 .00000160 00000+0 13090-3 0 9994 2 65568 81.3037 217.2276 0010456 76.2705 283.9616 13.85186794 7851 PRAETORIAN SDA_606 1 65569U 25203E 25310.14090002 .00000065 00000+0 47499-4 0 9997 2 65569 81.3067 217.4074 0008036 78.5752 281.6307 13.84691351 7830 PRAETORIAN SDA_607 1 65570U 25203F 25310.26358036 .00000173 00000+0 14145-3 0 9997 2 65570 81.3052 217.2403 0010636 76.6952 283.5391 13.85228542 7855 PRAETORIAN SDA_608 1 65571U 25203G 25310.21964516 .00000124 00000+0 99525-4 0 9991 2 65571 81.3017 217.3183 0007462 81.9874 278.2129 13.84535472 7849 PRAETORIAN SDA_609 1 65572U 25203H 25310.28227896 .00000043 00000+0 27151-4 0 9998 2 65572 81.3062 217.2661 0008342 76.0463 284.1621 13.84765042 7859 PRAETORIAN SDA_610 1 65573U 25203J 25310.21479588 .00000222 00000+0 18700-3 0 9997 2 65573 81.3017 217.3121 0007852 79.2721 280.9320 13.84653946 7847 PRAETORIAN SDA_611 1 65574U 25203K 25310.22268375 .00000152 00000+0 12470-3 0 9999 2 65574 81.3027 217.3266 0007266 84.5961 275.6025 13.84461984 7845 PRAETORIAN SDA_612 1 65575U 25203L 25310.26682771 .00000187 00000+0 15483-3 0 9999 2 65575 81.3051 217.2442 0010269 75.8098 284.4199 13.85150879 7859 PRAETORIAN SDA_613 1 65576U 25203M 25310.28386302 .00000129 00000+0 10369-3 0 9997 2 65576 81.3020 217.2429 0008176 77.2858 282.9213 13.84732100 7857 PRAETORIAN SDA_614 1 65577U 25203N 25310.13638818 .00000144 00000+0 11739-3 0 9993 2 65577 81.3033 217.3816 0008337 75.2343 284.9738 13.84803597 7841 PRAETORIAN SDA_615 1 65578U 25203P 25310.26154928 .00000109 00000+0 85267-4 0 9992 2 65578 81.3036 217.2231 0010831 77.4239 282.8129 13.85281388 7856 PRAETORIAN SDA_616 1 65579U 25203Q 25310.22117758 .00000164 00000+0 13542-3 0 9996 2 65579 81.3066 217.3499 0007336 83.0926 277.1065 13.84498283 7847 PRAETORIAN SDA_617 1 65580U 25203R 25310.27025325 .00000155 00000+0 12594-3 0 9997 2 65580 81.3053 217.2484 0009899 75.0977 285.1276 13.85065937 7852 PRAETORIAN SDA_618 1 65581U 25203S 25310.25989066 .00000163 00000+0 13243-3 0 9998 2 65581 81.3036 217.2215 0011069 77.0168 283.2225 13.85318481 7850 PRAETORIAN SDA_619 1 65582U 25203T 25310.27210434 .00000139 00000+0 11192-3 0 9991 2 65582 81.3053 217.2503 0009643 75.2064 285.0161 13.85020118 8486 PRAETORIAN SDA_620 1 65583U 25203U 25310.20154993 .00000163 00000+0 13392-3 0 9993 2 65583 81.3042 217.3094 0009489 75.2336 284.9872 13.84979353 7840 PRAETORIAN SDA_621 1 65584U 25203V 25310.26850169 .00000199 00000+0 16510-3 0 9992 2 65584 81.3038 217.2319 0010115 75.5080 284.7199 13.85109544 7851 PRAETORIAN SDA_601 1 65585U 25203W 25310.22441592 .00000154 00000+0 12720-3 0 9995 2 65585 81.3052 217.3453 0007228 86.2009 273.9974 13.84419553 7842